Regional Weather Roundup
Issued by NWS

Home | Current Version | Previous Version | Graphics & Text | Print | Product List | Glossary On
Versions: 1 2 3 4 5 6 7 8 9 10 11 12 13 14 15 16 17 18 19 20 21 22 23 24 25 26 27 28 29 30 31 32 33 34 35 36 37 38 39 40 41 42 43 44 45 46 47 48 49 50
000
ASUS43 KIND 262209
RWRIN

WEATHER ROUNDUP FOR INDIANA
NATIONAL WEATHER SERVICE INDIANAPOLIS IN
600 PM EDT WED JUL 26 2017

NOTE: "FAIR" INDICATES FEW OR NO CLOUDS BELOW 12,000 FEET WITH NO
SIGNIFICANT WEATHER AND/OR OBSTRUCTIONS TO VISIBILITY.

* - STATION DOES NOT REPORT WEATHER SUCH AS PRECIPITATION OR FOG.

+ - STATION NOT QUALITY CONTROLLED BY THE NATIONAL WEATHER SERVICE.
    USE DATA WITH CAUTION...ESPECIALLY DEWPOINT AND RELATIVE
    HUMIDITY OBSERVATIONS.

INZ001>003-010>013-019-020-262300-
NORTHWEST INDIANA

CITY           SKY/WX    TMP DP  RH WIND       PRES   REMARKS
GARY /AIRPORT/ CLOUDY    84  68  58 S5        30.01F
KNOX *+        FAIR      79  70  73 SW7       30.02F
LA PORTE +     FAIR      80  70  72 S3        30.03F
MICHIGAN CITY+ FAIR      79  70  73 S3        30.02F
MONTICELLO +   FAIR      81  69  66 S3        30.02F
RENSSELAER +   FAIR      81  70  69 SE5       30.02F
VALPARAISO     FAIR      82  71  69 S8        30.02F

$$

LMZ046-743>745-262300-
SOUTHERN LAKE MICHIGAN

STATION/POSITION TIME  TEMP    WIND        PRES    WAVE
                       AIR SEA DIR/SP/G            HT
                 (UTC) (F)     (DEG/KT/KT) (MB)    (FT)
BURNS HARBOR     2200   82     210/ 10/ 11 1016.3
MICHIGAN CITY    2140   80     170/  6/  8   N/A
5NW MICH CITY    2200   78 77   80/  4/  4   N/A     0

$$

INZ004-005-014>016-021>024-262300-
NORTH CENTRAL INDIANA

CITY           SKY/WX    TMP DP  RH WIND       PRES   REMARKS
ELKHART        FAIR      81  64  57 SW6       30.03F
GOSHEN         FAIR      82  62  50 S5        30.03F
LOGANSPORT +   FAIR      81  68  65 CALM      30.04F
PERU/GRISSOM   FAIR      81  69  67 CALM      30.03F
ROCHESTER +    FAIR      82  68  61 SW6       30.04F
SOUTH BEND     FAIR      81  67  62 SW7       30.03F
WARSAW +       FAIR      79  66  65 CALM      30.04F

$$

INZ006>009-017-018-025>027-262300-
NORTHEAST INDIANA

CITY           SKY/WX    TMP DP  RH WIND       PRES   REMARKS
AUBURN +       FAIR      81  61  50 CALM      30.05F
FORT WAYNE     PTSUNNY   81  64  56 S5        30.05F
HUNTINGTON +   FAIR      80  62  54 SW5       30.04F
KENDALLVILLE + FAIR      81  64  57 SW6       30.05F

$$

INZ028-029-035-036-043>045-051>053-262300-
WEST CENTRAL INDIANA

CITY           SKY/WX    TMP DP  RH WIND       PRES   REMARKS
GREENCASTLE +  FAIR      84  72  65 SE5       30.03F
LAFAYETTE      FAIR      82  72  71 CALM      30.01F
TERRE HAUTE    FAIR      88  75  65 SE7       30.00F HX  97

$$

INZ030>032-037>040-046>048-054>057-064-065-262300-
CENTRAL INDIANA

CITY           SKY/WX    TMP DP  RH WIND       PRES   REMARKS
CP ATTERBURY + PTSUNNY   82  70  65 S5        30.04S
FRANKFORT +    CLOUDY    84  73  69 CALM      30.05F
GREENWOOD *+   FAIR     N/A N/A N/A SE7       30.04F
INDIANAPOLIS   CLOUDY    84  71  65 SE7       30.02F
-EAGLE CREEK   FAIR      85  69  58 SW6       30.02F
KOKOMO +       FAIR      80  70  71 S6        30.04F
MARION +       FAIR      79  66  65 SW3       30.05F
MT COMFORT *+  FAIR      81  70  69 SE5       30.05S
SHELBYVILLE    FAIR      84  69  60 S5        30.03F
ZIONSVILLE +   FAIR      82  69  63 S5        30.04F

$$

INZ033-034-041-042-049-050-058-059-262300-
EAST CENTRAL INDIANA

CITY           SKY/WX    TMP DP  RH WIND       PRES   REMARKS
MUNCIE         FAIR      83  65  54 S5        30.05F
RICHMOND +     FAIR      77  68  73 CALM      30.07F HAZE

$$

INZ060-061-067>069-081>083-085>088-262300-
SOUTHWEST INDIANA

CITY           SKY/WX    TMP DP  RH WIND       PRES   REMARKS
EVANSVILLE     FAIR      83  68  60 W9G21     30.00R
HUNTINGBURG *+ LGT RAIN  87  78  74 S5        30.01R HX 100

$$

INZ062-063-066-070>080-084-089>092-262300-
SOUTH CENTRAL AND SOUTHEAST INDIANA

CITY           SKY/WX    TMP DP  RH WIND       PRES   REMARKS
BEDFORD +      FAIR      86  72  62 SE5       30.01S
BLOOMINGTON    FAIR      86  71  60 SE6       30.02F
MADISON *+     FAIR      86  68  54 SE3       30.05F
NORTH VERNON + FAIR      84  72  65 CALM      30.04F
SEYMOUR +      FAIR      86  70  58 CALM      30.02F

$$





USA.gov is the U.S. government's official web portal to all federal, state and local government web resources and services.